Terminal Aerodrome Forecast
Issued by NWS Tampa Bay Area, FL

Home | Current Version | Previous Version | Text Only | Print | Product List | Glossary On
Versions: 1 2 3 4 5 6 7 8 9 10 11 12 13 14 15 16 17 18 19 20
000
FTUS42 KTBW 310500
TAFFMY
TAF
KFMY 310536Z 3106/0106 VRB03KT P6SM FEW060 SCT100 BKN250
     FM311600 27008KT P6SM VCTS SCT030CB BKN250
     FM010100 VRB03KT P6SM FEW040 SCT250=

USA.gov is the U.S. government's official web portal to all federal, state and local government web resources and services.